User: anonymous
Location: Unspecified
(0.0000°N, 0.0000°E)
Time: 18:51:18
(UTC+00:00)
Language:

HST - Orbit

View from above orbital plane
View from above orbital plane
View from above satellite
View from above satellite

Ground track
Ground track

The orbit data is extracted from the following two-line orbital elements,

1 20580U 90037B   14244.66406250  .00001531  00000-0  91579-4 0  1018
2 20580 028.4697 254.3045 0003338 024.9278 275.2269 15.05672793136250
Epoch (UTC): 01 September 2014 15:56:15
Eccentricity: 0.0003338
inclination: 28.4697°
perigee height: 547 km
apogee height: 552 km
right ascension of ascending node: 254.3045°
argument of perigee: 24.9278°
revolutions per day: 15.05672793
mean anomaly at epoch: 275.2269°
orbit number at epoch: 13625

The dashed part of the orbit path shows where the satellite is in the earth's shadow,  

DLR